This demonstration page uses our WeatherBlox Daily Observations layout. Learn more.

Left ArrowRight Arrow

Hourly Observations for January 1, 2016

Temp ( °F °C ) Dew Point ( °F °C ) Humidity (%) Winds ( mph kmh ) Pressure ( in mb ) Visibility ( mi km ) Precip ( " mm )
12:59 am 00:59 Cloudy 53 11.7 50 10 89 89 NNE 6 9 30.11 1020 8 13 0.00 0.00
1:32 am 01:32 Mostly Cloudy 53 11.7 48 8.9 83 83 NE 5 7 30.09 1019 9 14 0.00 0.00
1:59 am 01:59 Mostly Cloudy 53 11.7 46 7.8 77 77 NE 9 15 30.10 1019 10 16 0.00 0.00
2:59 am 02:59 Cloudy 51 10.6 43 6.1 74 74 NNE 10 17 30.13 1020 10 16 0.00 0.00
3:47 am 03:47 Cloudy 50 10 43 6.1 77 77 NNE 12 19 30.12 1020 10 16 0.00 0.00
3:59 am 03:59 Mostly Cloudy 50 10 42 5.6 74 74 NNE 15 24 30.13 1020 10 16 0.00 0.00
4:59 am 04:59 Mostly Clear 49 9.4 40 4.4 71 71 NE 8 13 30.11 1020 10 16 0.00 0.00
5:17 am 05:17 Mostly Cloudy 49 9.4 40 4.4 71 71 NE 10 17 30.12 1020 10 16 0.00 0.00
5:59 am 05:59 Cloudy 49 9.4 42 5.6 77 77 NE 10 17 30.14 1021 9 14 0.00 0.00
6:59 am 06:59 Cloudy 49 9.4 41 5 74 74 NNE 9 15 30.15 1021 9 14 0.00 0.00
7:59 am 07:59 Mostly Cloudy 48 8.9 41 5 77 77 NE 8 13 30.15 1021 7 11 0.00 0.00
8:52 am 08:52 Partly Cloudy 48 8.9 40 4.4 74 74 ENE 7 11 30.15 1021 8 13 0.00 0.00
8:59 am 08:59 Partly Cloudy 48 8.9 40 4.4 74 74 NE 6 9 30.16 1021 7 11 0.00 0.00
9:20 am 09:20 Mostly Cloudy 49 9.4 40 4.4 71 71 NE 10 17 30.18 1022 8 13 0.00 0.00
9:59 am 09:59 Cloudy 49 9.4 40 4.4 71 71 NE 7 11 30.17 1022 8 13 0.00 0.00
10:18 am 10:18 Cloudy 50 10 40 4.4 68 68 NNE 7 11 30.18 1022 9 14 0.00 0.00
10:59 am 10:59 Cloudy 50 10 40 4.4 68 68 NE 8 13 30.16 1021 9 14 0.00 0.00
11:59 am 11:59 Cloudy 50 10 39 3.9 66 66 N 7 11 30.14 1021 9 14 0.00 0.00
12:43 pm 12:43 Cloudy 51 10.6 39 3.9 64 64 VRB 3 6 30.12 1020 9 14 0.00 0.00
12:59 pm 12:59 Mostly Cloudy 51 10.6 39 3.9 64 64 VRB 5 7 30.10 1019 9 14 0.00 0.00
1:12 pm 13:12 Mostly Cloudy 50 10 38 3.3 63 63 undefined N/A 30.09 1019 9 14 0.00 0.00
1:59 pm 13:59 Mostly Sunny 50 10 38 3.3 63 63 W 6 9 30.10 1019 9 14 0.00 0.00
2:59 pm 14:59 Mostly Cloudy 50 10 38 3.3 63 63 W 7 11 30.10 1019 9 14 0.00 0.00
3:47 pm 15:47 Partly Cloudy 50 10 39 3.9 66 66 WSW 6 9 30.09 1019 9 14 0.00 0.00
3:59 pm 15:59 Mostly Sunny 50 10 39 3.9 66 66 WSW 7 11 30.09 1019 9 14 0.00 0.00
4:59 pm 16:59 Clear 50 10 39 3.9 66 66 WSW 7 11 30.11 1020 9 14 0.00 0.00
5:59 pm 17:59 Mostly Clear 50 10 40 4.4 68 68 W 12 19 30.11 1020 10 16 0.00 0.00
6:59 pm 18:59 Cloudy 54 12.2 49 9.4 83 83 NE 6 9 30.13 1020 9 14 0.00 0.00
7:59 pm 19:59 Mostly Clear 49 9.4 42 5.6 77 77 W 7 11 30.12 1020 9 14 0.00 0.00
8:59 pm 20:59 Clear 48 8.9 37 2.8 66 66 WNW 13 20 30.13 1020 10 16 0.00 0.00
9:59 pm 21:59 Clear 47 8.3 33 0.6 59 59 WNW 12 19 30.14 1021 10 16 0.00 0.00
10:59 pm 22:59 Clear 46 7.8 33 0.6 61 61 NW 12 19 30.14 1021 10 16 0.00 0.00
11:59 pm 23:59 Partly Cloudy 46 7.8 31 -0.6 56 56 NNW 14 22 30.14 1021 10 16 0.00 0.00

Powered by AerisWeather